Weather History for Janesville, WI

Change the Weather History Date:

Sunday, October 27, 2013

  Actual Average Record
Temperature  
Mean Temperature 42 °F -  
Max Temperature 55 °F 55 °F 78 °F (2014)
Min Temperature 28 °F 38 °F 26 °F (1987)
Degree Days  
Heating Degree Days 24    
Moisture  
Dew Point 28 °F    
Average Humidity 69    
Maximum Humidity 93    
Minimum Humidity 31    
Precipitation  
Precipitation 0.00 in - - ()
Sea Level Pressure  
Sea Level Pressure 30.01 in    
Wind  
Wind Speed 3 mph (WSW)    
Max Wind Speed 20 mph    
Max Gust Speed 25 mph    
Visibility 10 miles    
Events      
Averages and records for this station are not official NWS values.
T = Trace of Precipitation, MM = Missing Value Source: NWS Daily Summary

Daily Weather History Graph

Daily Weather History Graph

Search for Another Location

Airport:

Trip Planner

Search our weather history database for the weather conditions in past years. The results will help you decide how hot, cold, wet, or windy it might be!

Date:

Astronomy

Oct. 27, 2013 Rise Set
Actual Time 7:24 AM CDT 5:55 PM CDT
Civil Twilight 6:55 AM CDT 6:24 PM CDT
Nautical Twilight 6:21 AM CDT 6:57 PM CDT
Astronomical Twilight 5:49 AM CDT 7:30 PM CDT
Moon 12:12 AM CDT (10/27) 2:12 PM CDT (10/27)
Length of Visible Light 11h 29m
Length of Day
10h 31m
Last Quarter, 43% of the Moon is Illuminated
Oct 27
Last Quarter
Nov 3
New
Nov 9
First Quarter
Nov 17
Full
Nov 25
Last Quarter

Hourly Weather History & Observations

Time (CDT) Temp. Windchill Dew Point Humidity Pressure Visibility Wind Dir Wind Speed Gust Speed Precip Events Conditions
12:15 AM 33.8 °F 30.8 °F 30.2 °F 87% 30.06 in 10.0 mi WNW 3.5 mph - N/A   Clear
12:35 AM 35.6 °F 32.8 °F 28.4 °F 75% 30.06 in 10.0 mi West 3.5 mph - N/A   Clear
12:55 AM 35.6 °F - 28.4 °F 75% 30.05 in 10.0 mi Calm Calm - N/A   Clear
1:15 AM 33.8 °F - 28.4 °F 81% 30.04 in 10.0 mi Calm Calm - N/A   Clear
1:35 AM 32.0 °F - 28.4 °F 87% 30.04 in 10.0 mi Calm Calm - N/A   Clear
1:55 AM 32.0 °F - 28.4 °F 87% 30.04 in 10.0 mi Calm Calm - N/A   Clear
2:15 AM 32.0 °F - 28.4 °F 87% 30.03 in 10.0 mi Calm Calm - N/A   Clear
2:35 AM 32.0 °F - 26.6 °F 80% 30.03 in 10.0 mi Calm Calm - N/A   Clear
2:55 AM 32.0 °F - 26.6 °F 80% 30.02 in 10.0 mi Calm Calm - N/A   Clear
3:15 AM 30.2 °F - 26.6 °F 86% 30.02 in 10.0 mi Calm Calm - N/A   Clear
3:35 AM 30.2 °F - 26.6 °F 86% 30.01 in 10.0 mi Calm Calm - N/A   Clear
3:55 AM 30.2 °F - 26.6 °F 86% 30.02 in 10.0 mi Calm Calm - N/A   Clear
4:15 AM 30.2 °F - 26.6 °F 86% 30.02 in 10.0 mi Calm Calm - N/A   Clear
4:35 AM 30.2 °F - 26.6 °F 86% 30.02 in 10.0 mi Calm Calm - N/A   Clear
4:55 AM 28.4 °F - 23.0 °F 80% 30.02 in 10.0 mi Calm Calm - N/A   Clear
5:15 AM 28.4 °F - 26.6 °F 93% 30.02 in 10.0 mi Calm Calm - N/A   Clear
5:35 AM 28.4 °F - 26.6 °F 93% 30.02 in 10.0 mi Calm Calm - N/A   Clear
5:45 AM 28.4 °F - 24.8 °F 86% 30.02 in 10.0 mi Calm Calm - N/A   Clear
6:45 AM 28.4 °F - 24.8 °F 86% 30.02 in 10.0 mi Calm Calm - N/A   Clear
7:45 AM 28.4 °F - 24.8 °F 86% 30.03 in 10.0 mi Calm Calm - N/A   Clear
8:45 AM 32.0 °F - 28.4 °F 87% 30.02 in 10.0 mi Calm Calm - N/A   Clear
9:45 AM 41.0 °F 36.4 °F 30.2 °F 65% 30.02 in 10.0 mi SW 6.9 mph - N/A   Clear
10:45 AM 46.4 °F 41.1 °F 30.2 °F 53% 30.01 in 10.0 mi West 11.5 mph 17.3 mph N/A   Clear
11:45 AM 51.8 °F - 26.6 °F 38% 30.00 in 10.0 mi West 16.1 mph 21.9 mph N/A   Clear
12:45 PM 53.6 °F - 26.6 °F 35% 29.98 in 10.0 mi WSW 19.6 mph 25.3 mph N/A   Clear
1:45 PM 53.6 °F - 26.6 °F 35% 29.95 in 10.0 mi WSW 13.8 mph 19.6 mph N/A   Clear
2:45 PM 55.4 °F - 24.8 °F 31% 29.93 in 10.0 mi SW 15.0 mph 20.7 mph N/A   Clear
3:45 PM 55.4 °F - 26.6 °F 33% 29.93 in 10.0 mi SW 17.3 mph 23.0 mph N/A   Clear
4:45 PM 55.4 °F - 26.6 °F 33% 29.92 in 10.0 mi SW 15.0 mph 20.7 mph N/A   Clear
5:45 PM 51.8 °F - 26.6 °F 38% 29.92 in 10.0 mi SW 9.2 mph - N/A   Clear
6:45 PM 46.4 °F 42.9 °F 26.6 °F 46% 29.93 in 10.0 mi SW 6.9 mph - N/A   Clear
7:45 PM 44.6 °F 41.4 °F 28.4 °F 53% 29.95 in 10.0 mi SSW 5.8 mph - N/A   Clear
8:45 PM 44.6 °F 43.1 °F 28.4 °F 53% 29.97 in 10.0 mi SW 3.5 mph - N/A   Clear
9:15 PM 44.6 °F 43.1 °F 28.4 °F 53% 29.98 in 10.0 mi SW 3.5 mph - N/A   Clear
9:35 PM 41.0 °F - 28.4 °F 61% 30.00 in 10.0 mi Calm Calm - N/A   Clear
9:55 PM 41.0 °F - 28.4 °F 61% 30.01 in 10.0 mi Calm Calm - N/A   Clear
10:15 PM 42.8 °F - 28.4 °F 57% 30.01 in 10.0 mi Calm Calm - N/A   Scattered Clouds
10:35 PM 37.4 °F - 28.4 °F 70% 30.02 in 10.0 mi Calm Calm - N/A   Mostly Cloudy
10:55 PM 37.4 °F - 30.2 °F 75% 30.02 in 10.0 mi Calm Calm - N/A   Overcast
11:15 PM 39.2 °F - 32.0 °F 75% 30.02 in 10.0 mi Calm Calm - N/A   Mostly Cloudy
11:35 PM 37.4 °F - 30.2 °F 75% 30.03 in 10.0 mi Calm Calm - N/A   Mostly Cloudy
11:55 PM 37.4 °F - 30.2 °F 75% 30.04 in 10.0 mi Calm Calm - N/A   Scattered Clouds